Jonesboro, AR

5:08 AM CDT on April 19, 2018 (GMT -0500)
Jonesboro Municipal

Weather History for KJBR - January, 2014

Change the Weather History Date:

Wednesday, January 1, 2014

  Actual Average Record
Temperature  
Mean Temperature 37 °F 37 °F  
Max Temperature 49 °F 46 °F 74 °F (1952)
Min Temperature 25 °F 29 °F 3 °F (1928)
Degree Days  
Heating Degree Days 28 28  
Month to date heating degree days 28 28  
Since 1 July heating degree days 1588 1470  
Cooling Degree Days 0 0  
Month to date cooling degree days 0 0  
Year to date cooling degree days 0 0  
Moisture  
Dew Point 32 °F    
Average Humidity 76    
Maximum Humidity 92    
Minimum Humidity 60    
Precipitation  
Precipitation T in 0.11 in 2.55 in (1966)
Month to date precipitation T 0.11  
Year to date precipitation T 0.11  
Snow  
Snow 0.00 in - - ()
Month to date snowfall 0.0  
Snow Depth 0.00 in    
Sea Level Pressure  
Sea Level Pressure 30.12 in    
Wind  
Wind Speed 6 mph (South)    
Max Wind Speed 16 mph    
Max Gust Speed 20 mph    
Visibility 10 miles    
Events Rain    
T = Trace of Precipitation, MM = Missing Value Source: NWS Daily Summary

Daily Weather History Graph

Daily Weather History Graph

Search for Another Location

Airport or City:

Astronomy

Jan. 01, 2014 Rise Set
Actual Time 7:12 AM CST 4:59 PM CST
Civil Twilight 6:44 AM CST 5:28 PM CST
Nautical Twilight 6:12 AM CST 6:00 PM CST
Astronomical Twilight 5:41 AM CST 6:31 PM CST
Moon 7:05 AM CST (1/1) 5:42 PM CST (1/1)
Length of Visible Light 10h 43m
Length of Day
9h 47m
New Moon, 0% of the Moon is Illuminated
Jan 1
New Moon
Jan 7
First Quarter
Jan 15
Full
Jan 23
Last Quarter
Jan 30
New

Hourly Weather History & Observations

Time (CST) Temp. Windchill Dew Point Humidity Pressure Visibility Wind Dir Wind Speed Gust Speed Precip Events Conditions
12:53 AM 27.0 °F 20.5 °F 25.0 °F 92% 30.28 in 10.0 mi South 5.8 mph - N/A   Clear
1:53 AM 26.1 °F - 25.0 °F 96% 30.27 in 10.0 mi Calm Calm - N/A   Clear
2:53 AM 28.9 °F - 25.0 °F 85% 30.27 in 10.0 mi Calm Calm - N/A   Clear
3:53 AM 28.9 °F 22.8 °F 26.1 °F 89% 30.25 in 10.0 mi South 5.8 mph - N/A   Clear
4:53 AM 26.1 °F 21.9 °F 24.1 °F 92% 30.24 in 10.0 mi South 3.5 mph - N/A   Clear
5:53 AM 27.0 °F - 25.0 °F 92% 30.24 in 10.0 mi Calm Calm - N/A   Clear
6:53 AM 28.0 °F 22.8 °F 25.0 °F 88% 30.23 in 10.0 mi South 4.6 mph - N/A   Clear
7:53 AM 30.0 °F 21.7 °F 28.0 °F 92% 30.22 in 10.0 mi South 9.2 mph - N/A   Clear
8:53 AM 33.1 °F 24.4 °F 30.0 °F 89% 30.24 in 10.0 mi South 11.5 mph - N/A   Clear
9:53 AM 36.0 °F 28.0 °F 32.0 °F 86% 30.23 in 10.0 mi South 11.5 mph - N/A   Clear
10:53 AM 39.9 °F 33.9 °F 33.1 °F 77% 30.21 in 10.0 mi South 9.2 mph - N/A   Clear
11:53 AM 44.1 °F 40.1 °F 34.0 °F 68% 30.16 in 10.0 mi South 6.9 mph - N/A   Clear
12:53 PM 46.9 °F - 34.0 °F 61% 30.12 in 10.0 mi SSW 9.2 mph 18.4 mph N/A   Clear
1:53 PM 48.0 °F - 36.0 °F 63% 30.09 in 10.0 mi South 9.2 mph - N/A   Clear
2:53 PM 48.9 °F - 36.0 °F 61% 30.06 in 10.0 mi SSE 11.5 mph - N/A   Clear
3:53 PM 48.0 °F - 37.0 °F 66% 30.03 in 10.0 mi SE 10.4 mph - N/A   Clear
4:53 PM 46.9 °F - 37.0 °F 68% 30.02 in 10.0 mi SSE 8.1 mph - N/A   Overcast
5:53 PM 46.9 °F - 36.0 °F 66% 30.00 in 10.0 mi SSE 9.2 mph - N/A   Overcast
6:53 PM 46.9 °F - 37.0 °F 68% 30.00 in 10.0 mi South 4.6 mph - 0.00 in Rain Light Rain
7:53 PM 45.0 °F 43.5 °F 37.0 °F 74% 29.99 in 10.0 mi SSW 3.5 mph - 0.00 in   Overcast
8:53 PM 46.9 °F - 37.0 °F 68% 29.98 in 10.0 mi SW 4.6 mph - N/A   Overcast
9:53 PM 46.9 °F - 37.0 °F 68% 29.96 in 10.0 mi SW 4.6 mph - N/A   Overcast
10:53 PM 46.0 °F - 37.9 °F 73% 29.95 in 10.0 mi Calm Calm - N/A   Overcast
11:53 PM 46.9 °F - 39.0 °F 74% 29.95 in 10.0 mi WNW 4.6 mph - N/A   Overcast